sat.trackr.live / text

‹ back to catalog

CHUTIAN-2 B

NORAD 66410 · 2025-256B

PAYLOAD ACTIVE UNKNOWN

§ Identity

Operator
Country
PRC
Launch date
2025-11-09
Launch site
JSC
Launch vehicle
Mass (kg)
RCS (m²)

External: N2YO · Heavens-Above · Gunter

§ Orbital elements

Epoch: 2026-05-25T02:33:39.784608Z

Period
99.30 min
Inclination
98.2541°
Eccentricity
0.0015050
Mean motion
14.50169480 rev/d
Perigee alt
714.4 km
Apogee alt
735.8 km
Semi-major
7,103.2 km
B*
1.1042e-4
RAAN
211.8524°
Arg perigee
49.5268°
Mean anomaly
310.7236°
Rev number
2,855

§ Raw data

CHUTIAN-2 B1 66410U 25256B   26145.10671047  .00000386  00000+0  11042-3 0  99982 66410  98.2541 211.8524 0015050  49.5268 310.7236 14.50169480 28556

JSON: /api/v1/satellites/66410 · /tle

For live sub-satellite position, see the globe view (requires WebGL).

§ Visibility from observer

Set your observer location to see the next 7 days of passes ≥ 10°. The values pass through the URL so the page stays shareable.

No JS? Fill the form by hand. The geolocation button needs JavaScript.